[[{"header":{"parameterUnit":"m.s-1","parameterCategory":1,"la1":30.2991,"la2":30.254,"lo1":-89.0895,"lo2":-89.0444,"dy":0.0017,"dx":0.0017,"nx":28,"ny":28,"refTime":"2025-12-26T03:00:00:Z","depth":0,"parameterNumber":2,"parameterNumberName":"U-component_of_WINDS"},"data":[0,0,0,0,0,0,0,0,0,0,0,0,0,0,0,0,0,0,0,0,0,0,0,0,0,0,0,0,0,0,0,0,0,0,0,0,0,0,0,0,0,0,0,0,0,0,0,0,0,0,0,0,0,0,0,0,0,0,-0.1772,-0.1772,0,-0.1736,-0.1736,-0.1736,-0.1685,-0.1685,-0.1684,-0.1683,-0.1646,-0.1646,-0.1645,0,0,0,0,0,0,0,0,0,0,0,0,0,-0.1799,-0.1798,-0.1772,-0.1772,-0.1771,-0.1737,-0.1736,-0.1736,-0.1686,-0.1685,-0.1683,-0.1683,-0.1646,-0.1646,-0.1645,0,0,0,0,0,0,0,0,0,0,0,0,0,-0.1777,-0.1798,-0.1772,-0.1742,-0.1739,-0.1737,-0.1736,-0.1735,-0.1686,-0.1684,-0.1683,-0.1682,-0.1646,-0.1646,-0.1645,-0.1669,0,0,-0.1644,-0.1644,0,0,0,0,0,0,0,0,-0.1779,-0.1777,-0.1747,-0.1744,-0.1741,-0.1714,-0.1732,-0.1713,-0.1686,-0.1706,-0.1683,-0.1681,-0.167,-0.1667,-0.1663,-0.1667,-0.1666,-0.1644,-0.1644,-0.1644,-0.1644,0,0,0,0,0,0,0,-0.178,-0.1778,-0.1758,-0.1747,-0.1743,-0.1731,-0.1727,-0.1728,-0.1695,-0.1704,-0.1701,-0.1697,-0.1668,-0.1664,-0.1662,-0.1665,-0.1644,-0.1644,-0.1644,-0.1644,-0.1689,-0.1691,0,0,0,0,0,0,-0.1786,-0.1779,-0.1759,-0.1757,-0.1757,-0.1732,-0.1727,-0.1724,-0.1695,-0.169,-0.1698,-0.1695,-0.1665,-0.1662,-0.1661,-0.1688,-0.1644,-0.1644,-0.1644,-0.1688,-0.169,-0.1691,0,0,0,0,0,0,-0.1787,-0.1785,-0.1761,-0.1767,-0.1763,-0.1732,-0.173,-0.1724,-0.172,-0.1691,-0.1685,-0.17,-0.1664,-0.1661,-0.1668,-0.1686,-0.1644,-0.1643,-0.1686,-0.1689,-0.1691,-0.1743,0,0,0,0,0,0,-0.1788,-0.1785,-0.1794,-0.1768,-0.1763,-0.1769,-0.1731,-0.1724,-0.172,-0.1715,-0.1691,-0.1686,-0.1662,-0.1669,-0.1668,-0.1685,-0.1643,-0.1685,-0.1687,-0.169,-0.1739,-0.1746,-0.1752,0,0,0,0,0,-0.1789,-0.1809,-0.1795,-0.1792,-0.1773,-0.177,-0.1767,-0.174,-0.1721,-0.173,-0.1711,-0.1686,-0.1684,-0.167,-0.1668,-0.1686,-0.1683,-0.1687,-0.169,-0.1736,-0.1745,-0.1752,0,0,0,0,0,0,-0.1838,-0.1805,-0.1788,-0.1801,-0.1789,-0.1761,-0.1771,-0.175,-0.1742,-0.1738,-0.1705,-0.17,-0.1712,-0.1699,-0.1684,-0.1708,-0.168,-0.1683,-0.1716,-0.1724,-0.1731,-0.1734,-0.1643,0,0,0,0,0,-0.185,-0.185,-0.1822,-0.1836,-0.183,-0.1802,-0.18,-0.178,-0.1766,-0.176,-0.1742,-0.1729,-0.1726,-0.1724,-0.1719,-0.1737,-0.1732,-0.1748,-0.1755,-0.1761,-0.1764,-0.1775,-0.1782,-0.1701,-0.1701,-0.1701,0,0,-0.1876,-0.1858,-0.186,-0.1845,-0.1833,-0.1835,-0.1798,-0.18,-0.1801,-0.176,-0.1767,-0.1753,-0.1736,-0.175,-0.1755,-0.174,-0.1785,-0.1765,-0.1769,-0.1769,-0.1779,-0.1786,-0.1793,-0.1704,-0.1703,-0.1703,0,0,-0.1923,-0.1909,-0.192,-0.1909,-0.1892,-0.1873,-0.1876,-0.1852,-0.1841,-0.1847,-0.1817,-0.1818,-0.1812,-0.1802,-0.1796,-0.1842,-0.1819,-0.1841,-0.1876,-0.1886,-0.1893,-0.1898,-0.1916,-0.1923,-0.1844,-0.1844,-0.1844,0,-0.1957,-0.1957,-0.1928,-0.1933,-0.1928,-0.1892,-0.1903,-0.1894,-0.1876,-0.1874,-0.1857,-0.1851,-0.1837,-0.1849,-0.186,-0.1856,-0.1859,-0.1844,-0.1894,-0.1899,-0.1904,-0.1921,-0.1928,-0.1847,-0.1847,-0.1847,-0.1846,0,-0.2001,-0.2002,-0.2013,-0.1997,-0.1993,-0.2001,-0.1974,-0.1974,-0.1955,-0.1939,-0.1946,-0.1928,-0.192,-0.1921,-0.1902,-0.193,-0.1922,-0.19,-0.1871,-0.1915,-0.1931,-0.1937,-0.1851,-0.185,-0.1849,-0.1849,0,0,-0.2077,-0.2047,-0.2051,-0.2045,-0.2023,-0.2024,-0.2031,-0.2023,-0.2025,-0.2014,-0.202,-0.2017,-0.1997,-0.1991,-0.1971,-0.198,-0.202,-0.1957,-0.1956,-0.1971,-0.2052,-0.2069,-0.2077,-0.2004,-0.2005,-0.2006,-0.2054,0,-0.2122,-0.2132,-0.2107,-0.2124,-0.2126,-0.2092,-0.2098,-0.2086,-0.2071,-0.2071,-0.2054,-0.2053,-0.2026,-0.2023,-0.203,-0.2013,-0.2036,-0.2009,-0.2011,-0.2011,-0.2017,-0.2085,-0.2102,-0.2148,-0.2059,-0.206,-0.2061,0,-0.2175,-0.2168,-0.2185,-0.2165,-0.2164,-0.2171,-0.2163,-0.2162,-0.2149,-0.2137,-0.2131,-0.2108,-0.2114,-0.2086,-0.2095,-0.2078,-0.2077,-0.2069,-0.207,-0.207,-0.204,-0.2088,-0.2162,-0.217,-0.207,-0.2069,-0.2068,0,-0.2232,-0.2226,-0.2236,-0.2231,-0.2207,-0.2213,-0.2203,-0.2188,-0.2186,-0.2179,-0.2177,-0.2171,-0.2168,-0.2164,-0.214,-0.2121,-0.2153,-0.2122,-0.2145,-0.2145,-0.2153,-0.2153,-0.223,-0.2151,-0.2151,-0.215,-0.215,0,-0.2285,-0.2297,-0.2262,-0.2268,-0.2282,-0.2253,-0.2267,-0.2254,-0.2241,-0.2245,-0.2215,-0.2219,-0.2187,-0.2188,-0.2169,-0.2181,-0.2179,-0.2171,-0.2166,-0.2175,-0.2176,-0.2174,-0.2171,-0.2152,-0.2152,-0.2151,-0.2151,0,-0.235,-0.2327,-0.2336,-0.2313,-0.2308,-0.2319,-0.2299,-0.2305,-0.2288,-0.2294,-0.2293,-0.2267,-0.2267,-0.2243,-0.2237,-0.2225,-0.2245,-0.2234,-0.225,-0.2247,-0.2272,-0.227,-0.2351,-0.2361,-0.2274,-0.2275,-0.2275,0,-0.2387,-0.2396,-0.2374,-0.2374,-0.2366,-0.2367,-0.2365,-0.2337,-0.2336,-0.2322,-0.233,-0.2328,-0.2324,-0.2326,-0.2307,-0.2303,-0.2293,-0.2321,-0.2292,-0.2301,-0.2295,-0.2296,-0.2297,-0.2328,-0.2329,-0.233,-0.233,0,-0.2454,-0.2442,-0.244,-0.2435,-0.2433,-0.2427,-0.242,-0.2422,-0.2391,-0.2392,-0.2392,-0.239,-0.2385,-0.2383,-0.2376,-0.2367,-0.2344,-0.234,-0.2345,-0.2354,-0.2364,-0.2361,-0.2269,-0.2338,-0.2337,-0.2337,-0.2336,-0.2336,-0.2507,-0.2514,-0.25,-0.25,-0.2491,-0.2485,-0.249,-0.2474,-0.2473,-0.2468,-0.2451,-0.2454,-0.2442,-0.243,-0.2423,-0.2425,-0.2411,-0.2418,-0.2421,-0.2423,-0.2429,-0.2363,-0.2424,-0.2424,-0.2423,-0.2423,-0.2423,0,-0.2574,-0.2564,-0.2564,-0.2554,-0.2554,-0.2533,-0.2523,-0.2525,-0.2528,-0.2518,-0.2516,-0.2517,-0.2516,-0.2497,-0.2494,-0.25,-0.249,-0.25,-0.25,-0.2499,-0.2441,-0.2437,-0.2509,-0.2509,-0.2509,-0.2509,-0.2509,-0.2509,-0.2609,-0.2621,-0.2608,-0.2616,-0.2605,-0.2608,-0.2605,-0.26,-0.2592,-0.2595,-0.2594,-0.2581,-0.2569,-0.2565,-0.2563,-0.2558,-0.2559,-0.2573,-0.2565,-0.2511,-0.2503,-0.2495,-0.2491,-0.2573,-0.2573,-0.2623,-0.2623,-0.2623]},{"header":{"parameterUnit":"m.s-1","parameterCategory":1,"la1":30.2991,"la2":30.254,"lo1":-89.0895,"lo2":-89.0444,"dy":0.0017,"dx":0.0017,"nx":28,"ny":28,"refTime":"2025-12-26T03:00:00:Z","depth":0,"parameterNumber":3,"parameterNumberName":"V-component_of_WINDS"},"data":[0,0,0,0,0,0,0,0,0,0,0,0,0,0,0,0,0,0,0,0,0,0,0,0,0,0,0,0,0,0,0,0,0,0,0,0,0,0,0,0,0,0,0,0,0,0,0,0,0,0,0,0,0,0,0,0,0,0,1.5294,1.5294,0,1.5241,1.524,1.524,1.5237,1.5238,1.5239,1.5239,1.5181,1.5179,1.5177,0,0,0,0,0,0,0,0,0,0,0,0,0,1.5392,1.539,1.5294,1.5294,1.5293,1.5241,1.524,1.524,1.5237,1.5238,1.5239,1.524,1.5182,1.5179,1.5177,0,0,0,0,0,0,0,0,0,0,0,0,0,1.5345,1.539,1.5294,1.5286,1.5284,1.5241,1.524,1.5239,1.5237,1.5238,1.5239,1.524,1.5183,1.518,1.5176,1.5137,0,0,1.5167,1.5165,0,0,0,0,0,0,0,0,1.5348,1.5342,1.5288,1.5286,1.5285,1.5247,1.5253,1.5205,1.5237,1.5255,1.5239,1.524,1.5202,1.5197,1.5185,1.5135,1.5132,1.5166,1.5164,1.5163,1.5162,0,0,0,0,0,0,0,1.5351,1.5344,1.5273,1.5287,1.5285,1.5284,1.5278,1.5244,1.5224,1.5253,1.5253,1.5247,1.5201,1.5188,1.5184,1.5131,1.5166,1.5164,1.5162,1.516,1.5047,1.5046,0,0,0,0,0,0,1.5356,1.5347,1.5275,1.5272,1.5319,1.5281,1.5275,1.5258,1.5224,1.522,1.5246,1.5247,1.5193,1.5187,1.5182,1.5134,1.5163,1.516,1.5158,1.5048,1.5047,1.5046,0,0,0,0,0,0,1.5359,1.535,1.5277,1.5309,1.53,1.5278,1.5259,1.5256,1.5243,1.5219,1.5215,1.5237,1.5194,1.5186,1.5149,1.5132,1.5159,1.5156,1.505,1.5048,1.5046,1.5039,0,0,0,0,0,0,1.5361,1.5351,1.5336,1.5309,1.5298,1.5246,1.5258,1.5255,1.5238,1.5239,1.5209,1.5205,1.5194,1.5154,1.5146,1.5128,1.5153,1.5051,1.5049,1.5047,1.5041,1.5037,1.5035,0,0,0,0,0,1.5365,1.5335,1.5335,1.5327,1.5279,1.5245,1.5239,1.5228,1.5237,1.5222,1.5206,1.5206,1.5136,1.515,1.5141,1.5122,1.5052,1.5049,1.5047,1.5042,1.5038,1.5035,0,0,0,0,0,0,1.536,1.5331,1.5331,1.5292,1.5271,1.5245,1.5225,1.5224,1.5199,1.52,1.5187,1.518,1.5144,1.5129,1.5146,1.5083,1.5095,1.509,1.5094,1.509,1.5087,1.5091,1.5151,0,0,0,0,0,1.5354,1.533,1.5306,1.5273,1.5263,1.5246,1.523,1.5224,1.5201,1.5192,1.5174,1.5151,1.5124,1.5106,1.508,1.5039,1.5032,1.5022,1.5019,1.5016,1.5013,1.4991,1.4986,1.5038,1.5038,1.5038,0,0,1.5342,1.5324,1.5309,1.5272,1.5255,1.5229,1.5238,1.521,1.5191,1.5187,1.5152,1.5138,1.5111,1.5072,1.5054,1.5059,1.4997,1.5013,1.5012,1.5009,1.4988,1.4983,1.4978,1.5036,1.5037,1.5037,0,0,1.5307,1.5291,1.5263,1.5246,1.5221,1.521,1.5203,1.5177,1.5168,1.5132,1.5129,1.5106,1.5059,1.5041,1.5025,1.4985,1.4984,1.4977,1.4961,1.4939,1.4935,1.4932,1.4918,1.4913,1.4973,1.4973,1.4973,0,1.5295,1.5257,1.5248,1.522,1.5204,1.5202,1.5173,1.5157,1.5124,1.5113,1.5119,1.5062,1.5044,1.5001,1.4991,1.4979,1.497,1.498,1.4937,1.4933,1.4929,1.4916,1.4911,1.4973,1.4973,1.4973,1.4973,0,1.5243,1.5217,1.5197,1.5167,1.5149,1.5121,1.5107,1.509,1.5085,1.5074,1.5038,1.5016,1.4986,1.4975,1.497,1.4932,1.4936,1.494,1.4951,1.4924,1.4911,1.4906,1.4972,1.4972,1.4972,1.4972,0,0,1.5202,1.5169,1.5162,1.5149,1.5122,1.51,1.5072,1.5044,1.503,1.5007,1.4983,1.4945,1.4949,1.4931,1.4924,1.4906,1.4876,1.4912,1.4911,1.4906,1.4833,1.483,1.4825,1.4875,1.4874,1.4873,1.4835,0,1.5164,1.5116,1.5108,1.5064,1.504,1.5038,1.5014,1.4994,1.4983,1.496,1.4947,1.492,1.4927,1.4917,1.4899,1.4884,1.4861,1.4886,1.4852,1.4851,1.4859,1.4818,1.4814,1.478,1.483,1.4829,1.4829,0,1.5113,1.5092,1.5047,1.5024,1.5013,1.4992,1.4966,1.4944,1.4922,1.4915,1.4897,1.4892,1.4863,1.4876,1.4835,1.4852,1.4838,1.4829,1.4827,1.4823,1.4838,1.4813,1.4768,1.4763,1.4821,1.4821,1.4822,0,1.5088,1.5048,1.5016,1.5004,1.4977,1.4962,1.495,1.4929,1.4913,1.489,1.4879,1.4853,1.4838,1.4818,1.4806,1.4817,1.4766,1.4778,1.4759,1.476,1.4748,1.4749,1.4701,1.4739,1.4739,1.474,1.474,0,1.5047,1.5019,1.5004,1.4985,1.4954,1.4945,1.4915,1.4902,1.4884,1.4862,1.4858,1.4837,1.4823,1.48,1.4791,1.4758,1.4752,1.4745,1.4743,1.4745,1.4746,1.4735,1.4737,1.4738,1.4738,1.4739,1.4739,0,1.5013,1.5002,1.4968,1.4945,1.4939,1.4917,1.4898,1.4879,1.4868,1.484,1.4833,1.4816,1.4788,1.4775,1.474,1.4734,1.4698,1.4697,1.4706,1.4705,1.4687,1.4689,1.463,1.4622,1.4666,1.4665,1.4665,0,1.4987,1.4967,1.4943,1.4928,1.4916,1.4893,1.4877,1.4867,1.4851,1.4825,1.4809,1.4782,1.476,1.4716,1.47,1.4674,1.4672,1.4654,1.4668,1.4672,1.4672,1.4674,1.4672,1.4651,1.465,1.465,1.465,0,1.4943,1.4939,1.4917,1.4894,1.4875,1.4856,1.4837,1.4825,1.4812,1.4794,1.4767,1.475,1.4716,1.4689,1.4662,1.4649,1.4647,1.4646,1.464,1.4642,1.4648,1.4645,1.4699,1.4647,1.4647,1.4647,1.4647,1.4647,1.4912,1.4894,1.4875,1.4851,1.4836,1.4819,1.48,1.4788,1.4766,1.4738,1.4734,1.4705,1.4684,1.4648,1.4634,1.4611,1.4615,1.4607,1.4605,1.4603,1.4602,1.4652,1.4606,1.4606,1.4606,1.4606,1.4606,0,1.4868,1.4856,1.4834,1.4808,1.479,1.4792,1.4771,1.4755,1.473,1.4711,1.469,1.466,1.4634,1.4617,1.4591,1.4576,1.4574,1.4569,1.457,1.4567,1.46,1.4607,1.4571,1.4571,1.4571,1.4571,1.4571,1.4571,1.4842,1.4812,1.4806,1.4769,1.4757,1.473,1.4718,1.4702,1.4687,1.4653,1.4633,1.4622,1.4604,1.4577,1.4553,1.4549,1.454,1.4534,1.453,1.4561,1.4564,1.4568,1.4575,1.4532,1.4532,1.4499,1.4499,1.4499]}]]